EWG297 EDDC-EDLW

Flight info

Callsign EWG297
Flight time 0h 55m
Altitude 22000
Route BEBEX7E/04 BEBEX Q230 WRB P12 ESADU Z858 NUDGO/N0331F120 Z858 MABAB T842 ADEMI ADEMI2A
Aircraft A320/M-SDE3FGHIRWY/LB1

Departure

Time 2026-04-30 18:08
Airport Dresden Airport (EDDC)

Arrival

Time 2026-04-30 19:03
Airport Dortmund Airport (EDLW)
Time Latitude Longitude Altitude Speed Heading
2026-04-30 17:39 51.12740 13.76768 711 ft 0 kts 40°
2026-04-30 17:48 51.12739 13.76768 716 ft 0 kts 40°
2026-04-30 17:54 51.12739 13.76767 711 ft 0 kts 40°
2026-04-30 17:59 51.12729 13.76753 715 ft 2 kts 40°
2026-04-30 18:00 51.12679 13.76712 716 ft 0 kts 323°
2026-04-30 18:02 51.12808 13.76435 713 ft 14 kts 254°
2026-04-30 18:03 51.12591 13.76039 711 ft 3 kts 297°
2026-04-30 18:04 51.12640 13.75945 710 ft 0 kts 310°
2026-04-30 18:06 51.12696 13.75854 715 ft 18 kts 328°
2026-04-30 18:07 51.13949 13.77505 853 ft 165 kts 40°
2026-04-30 18:08 51.16924 13.81674 3150 ft 216 kts 40°
2026-04-30 18:09 51.23241 13.84796 6343 ft 271 kts 354°
2026-04-30 18:10 51.30496 13.81929 10398 ft 291 kts 323°
2026-04-30 18:11 51.32845 13.68093 12604 ft 363 kts 277°
2026-04-30 18:11 51.33278 13.55887 15109 ft 368 kts 277°
2026-04-30 18:12 51.33961 13.43407 16909 ft 387 kts 281°
2026-04-30 18:13 51.34619 13.34752 18176 ft 396 kts 282°
2026-04-30 18:13 51.35621 13.22940 19741 ft 408 kts 282°
2026-04-30 18:14 51.36498 13.12302 21109 ft 417 kts 282°
2026-04-30 18:15 51.37610 12.98379 22396 ft 426 kts 282°
2026-04-30 18:15 51.38702 12.84262 22430 ft 426 kts 282°
2026-04-30 18:16 51.39424 12.74838 22433 ft 426 kts 282°
2026-04-30 18:16 51.40150 12.65418 22433 ft 426 kts 282°
2026-04-30 18:17 51.40505 12.60776 22435 ft 426 kts 282°
2026-04-30 18:17 51.40862 12.56054 22437 ft 427 kts 282°
2026-04-30 18:17 51.41569 12.46611 22436 ft 427 kts 282°
2026-04-30 18:18 51.41921 12.41888 22437 ft 427 kts 282°
2026-04-30 18:18 51.42271 12.37168 22437 ft 427 kts 281°
2026-04-30 18:18 51.42618 12.32449 22433 ft 427 kts 281°
2026-04-30 18:18 51.42963 12.27718 22434 ft 427 kts 281°
2026-04-30 18:19 51.43306 12.22992 22434 ft 427 kts 281°
2026-04-30 18:19 51.43649 12.18265 22435 ft 427 kts 281°
2026-04-30 18:19 51.43984 12.13600 22434 ft 427 kts 281°
2026-04-30 18:19 51.44319 12.08869 22437 ft 427 kts 281°
2026-04-30 18:20 51.44652 12.04142 22436 ft 427 kts 281°
2026-04-30 18:20 51.44985 11.99412 22436 ft 427 kts 281°
2026-04-30 18:20 51.45320 11.94682 22437 ft 427 kts 281°
2026-04-30 18:20 51.45653 11.89945 22430 ft 427 kts 281°
2026-04-30 18:21 51.45982 11.85213 22439 ft 427 kts 281°
2026-04-30 18:21 51.46308 11.80478 22438 ft 427 kts 281°
2026-04-30 18:21 51.46632 11.75744 22436 ft 427 kts 281°
2026-04-30 18:21 51.46953 11.71010 22438 ft 427 kts 280°
2026-04-30 18:22 51.47273 11.66283 22435 ft 427 kts 280°
2026-04-30 18:22 51.47911 11.56812 22426 ft 427 kts 280°
2026-04-30 18:22 51.48221 11.52143 22438 ft 427 kts 280°
2026-04-30 18:23 51.48534 11.47349 22436 ft 427 kts 280°
2026-04-30 18:23 51.48827 11.42851 22441 ft 427 kts 280°
2026-04-30 18:30 51.49079 11.39667 22430 ft 425 kts 281°
2026-04-30 18:31 51.49428 11.34959 22434 ft 426 kts 280°
2026-04-30 18:31 51.50006 11.25493 22440 ft 426 kts 279°
2026-04-30 18:32 51.50551 11.16039 22447 ft 426 kts 279°
2026-04-30 18:32 51.50837 11.11371 22439 ft 425 kts 279°
2026-04-30 18:32 51.51429 11.01930 22444 ft 425 kts 279°
2026-04-30 18:33 51.51725 10.97204 22444 ft 425 kts 279°
2026-04-30 18:33 51.52305 10.87762 22441 ft 425 kts 279°
2026-04-30 18:33 51.52591 10.83043 22444 ft 425 kts 279°
2026-04-30 18:34 51.52875 10.78324 22444 ft 424 kts 279°
2026-04-30 18:34 51.53435 10.68892 22443 ft 424 kts 279°
2026-04-30 18:34 51.53703 10.64176 22438 ft 425 kts 276°
2026-04-30 18:35 51.53697 10.59421 22442 ft 427 kts 271°
2026-04-30 18:35 51.53619 10.54660 22442 ft 427 kts 271°
2026-04-30 18:35 51.53543 10.49961 22443 ft 426 kts 271°
2026-04-30 18:36 51.53390 10.40443 22439 ft 426 kts 271°
2026-04-30 18:36 51.53312 10.35688 22442 ft 426 kts 271°
2026-04-30 18:36 51.53150 10.26178 22440 ft 426 kts 271°
2026-04-30 18:37 51.53067 10.21427 22436 ft 426 kts 271°
2026-04-30 18:37 51.52985 10.16682 22438 ft 425 kts 271°
2026-04-30 18:37 51.52900 10.11934 22435 ft 425 kts 271°
2026-04-30 18:37 51.52811 10.07187 22436 ft 425 kts 271°
2026-04-30 18:38 51.52721 10.02439 22436 ft 425 kts 271°
2026-04-30 18:38 51.52629 9.97693 22430 ft 425 kts 270°
2026-04-30 18:38 51.52537 9.93007 22430 ft 425 kts 270°
2026-04-30 18:38 51.52449 9.88263 22431 ft 425 kts 271°
2026-04-30 18:39 51.52427 9.83534 22416 ft 419 kts 272°
2026-04-30 18:39 51.52459 9.78918 22090 ft 410 kts 274°
2026-04-30 18:39 51.52525 9.74354 21626 ft 406 kts 274°
2026-04-30 18:39 51.52600 9.69839 21136 ft 403 kts 274°
2026-04-30 18:40 51.52668 9.65354 20652 ft 401 kts 274°
2026-04-30 18:40 51.52721 9.60890 20166 ft 398 kts 273°
2026-04-30 18:40 51.52762 9.56453 19699 ft 396 kts 273°
2026-04-30 18:40 51.52791 9.52047 19231 ft 394 kts 272°
2026-04-30 18:41 51.52814 9.47647 18772 ft 392 kts 272°
2026-04-30 18:41 51.52835 9.43282 18276 ft 390 kts 272°
2026-04-30 18:41 51.52857 9.38946 17790 ft 387 kts 272°
2026-04-30 18:41 51.52878 9.34636 17327 ft 385 kts 272°
2026-04-30 18:42 51.52897 9.30413 16888 ft 382 kts 272°
2026-04-30 18:42 51.52934 9.21931 16383 ft 379 kts 271°
2026-04-30 18:42 51.52950 9.17695 16411 ft 380 kts 271°
2026-04-30 18:45 51.53136 8.76010 13563 ft 363 kts 270°
2026-04-30 18:45 51.53131 8.71971 13109 ft 360 kts 270°
2026-04-30 18:45 51.53125 8.67969 12661 ft 357 kts 270°
2026-04-30 18:46 51.53118 8.63994 12213 ft 354 kts 270°
2026-04-30 18:46 51.53111 8.60049 11762 ft 352 kts 270°
2026-04-30 18:46 51.53103 8.56134 11334 ft 349 kts 270°
2026-04-30 18:46 51.53097 8.52257 10900 ft 346 kts 270°
2026-04-30 18:47 51.53090 8.48402 10471 ft 344 kts 269°
2026-04-30 18:47 51.53080 8.44600 10246 ft 335 kts 269°
2026-04-30 18:47 51.53066 8.40940 10110 ft 322 kts 269°
2026-04-30 18:47 51.53050 8.37405 9934 ft 312 kts 269°
2026-04-30 18:48 51.53036 8.33944 9604 ft 308 kts 269°
2026-04-30 18:48 51.53023 8.30568 9233 ft 306 kts 269°
2026-04-30 18:48 51.53006 8.27162 8826 ft 305 kts 268°
2026-04-30 18:48 51.52985 8.23773 8433 ft 303 kts 268°
2026-04-30 18:49 51.52965 8.20399 8045 ft 301 kts 268°
2026-04-30 18:49 51.52945 8.17053 7654 ft 299 kts 268°
2026-04-30 18:49 51.52927 8.13865 7283 ft 297 kts 268°
2026-04-30 18:49 51.52909 8.10558 6899 ft 295 kts 268°
2026-04-30 18:50 51.52892 8.07286 6480 ft 293 kts 268°
2026-04-30 18:50 51.52875 8.04023 6043 ft 291 kts 267°
2026-04-30 18:50 51.52857 8.00785 5634 ft 289 kts 267°
2026-04-30 18:50 51.52837 7.97565 5224 ft 287 kts 266°
2026-04-30 18:51 51.52813 7.94367 4777 ft 286 kts 266°
2026-04-30 18:51 51.52788 7.91187 4357 ft 284 kts 266°
2026-04-30 18:51 51.52763 7.88030 3936 ft 282 kts 266°
2026-04-30 18:51 51.52736 7.84899 3491 ft 280 kts 266°
2026-04-30 18:52 51.52709 7.81824 3081 ft 278 kts 266°
2026-04-30 18:52 51.52679 7.78726 2978 ft 279 kts 267°
2026-04-30 18:52 51.52651 7.75602 2978 ft 279 kts 267°
2026-04-30 18:52 51.52624 7.72486 2986 ft 279 kts 267°
2026-04-30 18:53 51.52594 7.69372 2987 ft 280 kts 267°
2026-04-30 18:53 51.52561 7.66250 2986 ft 279 kts 266°
2026-04-30 18:53 51.52308 7.63190 2984 ft 275 kts 251°
2026-04-30 18:53 51.51575 7.60380 2982 ft 270 kts 236°
2026-04-30 18:54 51.50675 7.57858 2983 ft 251 kts 236°
2026-04-30 18:54 51.49845 7.55508 2981 ft 234 kts 236°
2026-04-30 18:54 51.49074 7.53317 2982 ft 218 kts 235°
2026-04-30 18:54 51.48348 7.51265 2985 ft 206 kts 235°
2026-04-30 18:55 51.47653 7.49315 2979 ft 203 kts 234°
2026-04-30 18:55 51.46258 7.45412 2987 ft 200 kts 234°
2026-04-30 18:55 51.45567 7.43480 2985 ft 201 kts 234°
2026-04-30 18:56 51.43596 7.40708 2995 ft 188 kts 200°
2026-04-30 18:56 51.42429 7.39793 2985 ft 186 kts 199°
2026-04-30 18:56 51.41261 7.38898 2988 ft 186 kts 198°
2026-04-30 18:57 51.38888 7.37354 2984 ft 179 kts 176°
2026-04-30 18:57 51.37713 7.37698 2983 ft 169 kts 148°
2026-04-30 18:57 51.36853 7.38909 2986 ft 165 kts 121°
2026-04-30 18:58 51.36712 7.42423 2983 ft 172 kts 68°
2026-04-30 18:58 51.37523 7.43875 2985 ft 185 kts 37°
2026-04-30 18:58 51.38783 7.44466 2992 ft 195 kts 11°
2026-04-30 18:59 51.41479 7.44908 2984 ft 194 kts 12°
2026-04-30 19:00 51.45439 7.45723 2797 ft 184 kts 27°
2026-04-30 19:00 51.46516 7.46730 2455 ft 173 kts 50°
2026-04-30 19:00 51.47729 7.49581 2007 ft 143 kts 66°
2026-04-30 19:01 51.48685 7.52292 1655 ft 138 kts 65°
2026-04-30 19:01 51.49154 7.53622 1453 ft 135 kts 65°
2026-04-30 19:02 51.50084 7.56257 1076 ft 135 kts 62°
2026-04-30 19:02 51.51014 7.58897 714 ft 134 kts 64°
2026-04-30 19:03 51.51917 7.61463 417 ft 121 kts 62°
2026-04-30 19:03 51.52160 7.62332 418 ft 14 kts 142°
2026-04-30 19:04 51.52155 7.62337 418 ft 0 kts 143°
2026-04-30 19:05 51.52023 7.62306 411 ft 16 kts 236°
2026-04-30 19:05 51.51908 7.61980 410 ft 23 kts 240°
2026-04-30 19:06 51.51746 7.61546 430 ft 13 kts 217°
2026-04-30 19:06 51.51690 7.61465 431 ft 10 kts 234°
2026-04-30 19:06 51.51659 7.61448 426 ft 0 kts 148°